Location: Remedello Sotto
(45.2500°N, 10.3667°E)
Time: 04:37:51
(UTC+00:00)

Cosmos 1340 - Pass Details

Date: 03 February 2023
Orbit: 478 x 483 km, 81.2° (Epoch: 29 March)

Event Time Altitude Azimuth Distance (km) Brightness Sun altitude
Rises 18:35:02 0° 344° (NNW) 2,553 6.4 -22.5°
Reaches altitude 10° 18:37:10 10° 340° (NNW) 1,670 5.5 -22.9°
Maximum altitude 18:40:43 52° 264° (W) 612 3.3 -23.5°
Enters shadow 18:43:15 18° 192° (SSW) 1,260 4.7 -24.0°
